Location: *
(57.8420°S, 159.8600°W)
Time: 04:36:32
(UTC+00:00)

CZ-4B R/B - Pass Details

Date: 18 May 2021
Orbit: 496 x 645 km, 97.8° (Epoch: 19 June)

Event Time Altitude Azimuth Distance (km) Brightness Sun altitude
Exits shadow 03:32:49 - 160° (SSE) 2,416 6.7 -8.5°
Reaches altitude 10° 03:34:25 10° 155° (SSE) 1,755 5.9 -8.7°
Maximum altitude 03:38:04 46° 80° (E) 708 4.0 -9.1°
Drops below altitude 10° 03:41:45 10° 5° (N) 1,775 6.6 -9.6°
Sets 03:43:56 0° 358° (N) 2,676 7.6 -9.9°
